DW7098 Weather Reports


time (UTC)temp
C
wind
direction
speed
KPH
gust
KPH
rain 1hr
cm
rain 24hr
cm
rain mn
cm
humidity
%
barometer
mb
20260906210115 20 132 4.8 12.9 0.00 0.00 0.00
20260906203048 19 275 3.2 14.5 0.00 0.00 0.00
20260906200111 18 252 3.2 9.7 0.00 0.00 0.00
20260906193049 18 125 3.2 12.9 0.00 0.00 0.00
20260906190108 18 227 6.4 11.3 0.00 0.00 0.00
20260906183044 17 253 0.0 6.4 0.00 0.00 0.00
20260906180108 15 237 1.6 4.8 0.00 0.00 0.00
20260906173043 14 80 1.6 3.2 0.00 0.00 0.00
20260906170116 13 141 0.0 1.6 0.00 0.00 0.00
20260906163024 13 112 0.0 1.6 0.00 0.00 0.00
20260906160122 12 74 0.0 3.2 0.00 0.00 0.00
20260906153104 11 65 0.0 1.6 0.00 0.00 0.00
20260906150106 11 94 0.0 3.2 0.00 0.00 0.00
20260906143030 11 70 0.0 0.0 0.00 0.00 0.00
20260906140104 11 70 0.0 0.0 0.00 0.00 0.00
20260906133048 11 70 0.0 1.6 0.00 0.00 0.00
20260906123053 11 70 0.0 0.0 0.00 0.00 0.00
20260906120120 11 61 1.6 4.8 0.00 0.00 0.00
20260906113038 11 65 0.0 0.0 0.00 0.00 0.00
20260906103032 11 65 0.0 1.6 0.00 0.00 0.00
20260906100103 11 65 0.0 0.0 0.00 0.00 0.00
20260906093050 11 65 0.0 0.0 0.00 0.00 0.00
20260906090121 12 65 0.0 0.0 0.00 0.00 0.00
20260906073028 12 66 0.0 3.2 0.00 0.00 0.00
20260906070120 13 101 0.0 0.0 0.00 0.00 0.00
20260906053056 13 93 0.0 0.0 0.00 0.00 0.00
20260906050112 14 93 0.0 0.0 0.00 0.00 0.00
20260906030101 16 207 0.0 0.0 0.00 0.00 0.00
20260906023049 17 207 0.0 0.0 0.00 0.00 0.00
20260906013052 18 217 0.0 6.4 0.00 0.00 0.00
20260906010115 18 185 1.6 8.0 0.00 0.00 0.00
20260906003045 19 85 1.6 8.0 0.00 0.00 0.00
20260906000124 20 60 1.6 9.7 0.00 0.00 0.00
20260905233101 22 61 1.6 6.4 0.00 0.00 0.00
20260905230113 22 279 1.6 6.4 0.00 0.00 0.00
20260905223027 20 202 0.0 8.0 0.00 0.00 0.00